Regional Weather Roundup
Issued by NWS Cleveland, OH

Home | Current Version | Previous Version | Graphics & Text | Print | Product List | Glossary On
Versions: 1 2 3 4 5 6 7 8 9 10 11 12 13 14 15 16 17 18 19 20 21 22 23 24 25 26 27 28 29 30 31 32 33 34 35 36 37 38 39 40 41 42 43 44 45 46 47 48 49 50
000
ASUS41 KCLE 250310
RWRCLE
OHIO REGIONAL WEATHER ROUNDUP
NATIONAL WEATHER SERVICE CLEVELAND, OH
1000 PM EST WED DEC 24 2014

NOTE: "FAIR" INDICATES FEW OR NO CLOUDS BELOW 12,000 FEET WITH NO
SIGNIFICANT WEATHER AND/OR OBSTRUCTIONS TO VISIBILITY.

OHZ001>008-015>018-024>027-034-035-043-044-250400-
   NORTHWEST OHIO

CITY           SKY/WX    TMP DP  RH WIND       PRES   REMARKS
DEFIANCE       CLOUDY    38  34  85 SW9G18    29.55R
FINDLAY        CLOUDY    39  35  86 W25G35    29.55R
TOLEDO EXPRESS CLOUDY    37  34  89 W18       29.50R
TOLEDO EXEC    CLOUDY    39  34  82 W18G26    29.50R
LIMA           LGT RAIN  39  34  82 W22G30    29.58R
$$

OHZ009>014-019>023-028>033-038-089-250400-
   NORTHEAST OHIO

CITY           SKY/WX    TMP DP  RH WIND       PRES   REMARKS
CLE-HOPKINS    CLOUDY    40  34  79 W26G37    29.50R
CLE-LAKEFRONT  CLOUDY    41  34  76 W33G43    29.45R
CUY CO. ARPT   LGT RAIN  45  37  76 W21G35    29.43R
LORAIN-ELYRIA  LGT RAIN  40  35  83 W24G35    29.50R
ASHTABULA      CLOUDY    46  39  76 SW31G44   29.40R
AKRON-CANTON   LGT RAIN  41  35  79 W21G32    29.52R
WOOSTER        CLOUDY    40  35  83 W21G36    29.53R
MANSFIELD      CLOUDY    38  35  89 SW22G36   29.53R
YOUNGSTOWN     LGT RAIN  45  39  79 SW30G49   29.46R
$$

OHZ042-051>053-060>062-070>072-077>081-250400-
  SOUTHWEST OHIO

CITY           SKY/WX    TMP DP  RH WIND       PRES   REMARKS
CINC-COVINGTON CLOUDY    40  33  76 W13G23    29.71R
CINC-LUNKEN    CLOUDY    40  36  86 W13G22    29.73R
HAMILTON       CLOUDY    40  34  79 SW9G18    29.71R
DAYTON         CLOUDY    39  34  82 SW17      29.66R
WRIGHT-PAT AFB CLOUDY    39  34  82 SW16      29.66R
DAYTON GENERAL CLOUDY    39  34  82 SW15G21   29.67R
WILMINGTON     CLOUDY    39  34  82 W23G31    29.67R
$$

OHZ036-037-039>041-045>050-054>059-063>069-073>076-082>088-250400-
  CENTRAL AND SOUTHEAST OHIO

CITY           SKY/WX    TMP DP  RH WIND       PRES   REMARKS
COLUMBUS       CLOUDY    41  35  79 W15G26    29.63R
OSU AIRPORT    CLOUDY    41  35  79 W16G24    29.61R
BOLTON FIELD   CLOUDY    40  36  83 W17G25    29.64R
RICKENBACK AFB CLOUDY    41  37  85 W21G31    29.65R
NEWARK         CLOUDY    42  36  79 SW16      29.62R
MARION         CLOUDY    40  34  79 W20G29    29.58R
LANCASTER      CLOUDY    42  37  82 W18G24    29.65R
ZANESVILLE     CLOUDY    41  35  79 W12G22    29.62R
NEW PHILLY     CLOUDY    43  36  76 W9G21     29.59R
$$


USA.gov is the U.S. government's official web portal to all federal, state and local government web resources and services.